Theta_e
353 348 347 350 347 344 348 345 346 342 338 343 345 345 348 348 349 348 346 342 343 345 340 339 340 339 339 339 340 340 340 340 340 341 341 341 343 344 344 344 343 341 340
353 353 353 351 352 350 350 351 347 338 334 336 336 340 338 342 349 346 348 345 344 343 341 341 340 340 340 339 339 339 339 339 338 338 338 339 339 340 341 341 342 340 340
351 351 355 352 348 354 351 348 349 342 342 345 343 345 343 343 349 346 346 348 346 346 343 343 342 342 341 340 340 339 339 338 338 337 336 338 339 338 337 337 338 336 337
354 354 353 355 346 352 352 352 348 347 344 347 349 351 353 351 349 340 344 345 336 337 346 341 334 343 342 342 341 340 340 340 338 336 336 338 338 337 337 337 337 336 335
353 354 349 353 351 354 345 337 346 352 350 352 354 353 351 352 351 343 338 338 339 340 346 345 345 345 345 343 342 341 334 329 335 334 332 335 338 337 336 336 335 335 334
353 353 350 355 356 355 351 350 341 347 352 354 354 351 350 350 351 346 345 343 342 338 345 344 344 346 343 342 342 341 336 335 333 331 331 333 335 335 333 336 335 333 329
355 354 351 354 354 356 352 354 352 350 354 356 353 352 351 349 347 346 344 343 343 335 344 342 341 343 341 338 337 338 338 339 338 331 330 331 334 337 337 334 323 322 324
355 352 354 351 351 353 352 354 355 354 355 356 355 352 347 348 349 344 345 345 345 344 341 340 339 340 339 336 333 335 338 337 337 336 333 330 329 330 327 325 325 325 325
348 351 350 352 353 353 355 356 356 357 356 355 354 352 348 348 348 347 346 344 342 342 340 337 337 336 336 332 327 324 319 323 333 335 334 331 330 325 327 327 326 326 325
346 350 351 351 351 351 353 356 357 357 356 357 353 352 352 351 347 346 347 343 341 338 338 339 336 335 331 327 325 322 319 318 317 321 328 331 333 330 326 326 326 328 328
348 349 350 350 351 351 353 355 356 356 355 355 353 352 351 352 348 346 345 341 340 339 337 336 333 328 322 320 318 316 321 318 317 317 322 327 329 331 331 330 330 330 330
349 348 348 350 350 350 353 356 354 354 355 355 353 352 352 350 347 345 340 340 338 332 323 319 322 320 318 317 320 318 320 317 316 312 318 319 321 325 328 330 331 330 329
349 353 350 350 352 354 355 352 354 356 356 354 353 353 347 344 345 346 343 341 338 335 320 319 319 318 319 318 320 321 323 317 316 315 314 313 313 315 319 322 327 329 329
357 354 354 354 354 352 354 356 357 358 355 354 351 347 347 347 348 345 340 340 325 333 327 320 320 321 319 317 320 320 320 318 316 315 314 314 314 314 315 319 320 322 325
350 352 355 355 356 357 356 358 360 357 356 352 349 349 345 329 323 322 320 321 323 322 319 324 323 321 317 317 322 321 320 318 315 314 313 313 314 316 317 318 318 319 319
361 359 355 355 356 359 360 361 359 357 356 350 347 344 334 326 321 320 319 321 323 323 319 322 321 318 318 320 321 320 318 316 315 313 314 312 312 312 314 314 314 314 315
357 356 356 357 360 362 360 362 358 359 353 348 344 341 330 324 323 323 321 321 322 321 319 323 320 319 319 320 321 319 317 315 314 313 312 312 311 311 311 312 312 312 313
359 356 359 361 362 361 361 362 357 357 351 347 344 340 325 320 321 323 324 322 323 325 322 320 318 320 318 320 318 318 316 314 314 313 313 313 312 312 311 311 310 311 310
358 359 361 362 362 361 363 362 359 353 351 345 340 328 323 324 325 325 322 318 316 315 316 319 317 315 317 318 318 318 317 315 315 315 314 313 312 312 312 312 310 310 310
362 362 361 362 363 361 364 360 355 352 346 340 333 326 324 324 323 322 319 311 314 313 313 314 315 314 315 317 317 318 319 318 315 315 315 313 312 312 312 311 311 311 312
363 362 363 363 361 361 364 360 354 349 342 335 327 319 316 314 309 314 307 304 306 310 313 315 315 315 315 316 317 318 320 321 317 317 316 314 312 312 312 312 312 313 314
363 362 363 362 362 363 365 360 353 346 340 331 315 312 309 314 312 305 308 310 311 310 313 315 315 315 314 315 317 319 319 321 317 316 317 314 313 312 312 312 313 314 313
364 364 363 362 364 364 362 357 351 345 335 323 313 312 320 321 320 313 313 313 313 311 314 316 314 315 314 316 317 318 319 317 315 313 315 313 313 313 312 313 313 312 312
364 362 364 364 365 363 359 353 349 341 330 317 319 317 324 325 322 319 320 317 313 312 312 316 316 316 316 317 316 315 316 317 315 314 314 314 312 313 312 313 312 311 312
363 364 363 367 365 361 356 350 346 334 322 321 326 320 325 323 325 322 322 320 317 316 311 315 317 316 317 317 316 316 314 314 313 314 312 312 312 311 313 312 312 310 312
364 366 366 367 366 362 353 348 345 331 329 326 322 326 324 321 322 323 321 314 316 318 314 313 317 316 316 317 316 316 314 314 313 313 312 312 311 311 312 312 311 309 310
Wind_Speed
8 6 4 2 0 9 9 9 9 8 10 11 14 16 14 19 8 1 6 16 15 13 19 12 15 16 18 19 21 20 18 16 16 15 15 15 16 15 15 15 16 18 19
6 5 3 2 1 3 5 5 9 18 20 17 18 11 16 15 7 8 5 9 14 9 14 12 15 15 17 18 18 16 16 15 15 15 14 14 14 15 14 14 14 15 17
4 6 10 5 5 6 5 8 12 14 18 18 18 17 16 13 12 12 5 3 7 4 12 16 17 13 15 16 15 16 16 18 17 15 15 15 15 16 16 15 15 15 15
4 8 8 9 7 5 8 12 16 18 22 24 24 22 20 14 6 10 4 2 4 5 7 10 16 15 6 17 15 14 12 13 9 12 12 14 15 15 15 16 16 15 15
1 5 9 14 8 4 13 24 15 19 24 22 24 24 24 18 8 8 10 11 16 7 9 5 5 8 4 6 12 10 6 6 8 11 11 13 15 16 15 16 16 16 16
3 6 9 10 11 2 15 27 18 17 20 22 21 27 22 22 5 5 12 12 9 8 7 5 6 3 4 6 2 7 4 8 6 7 7 9 13 15 16 19 20 19 17
4 6 12 10 14 15 20 22 21 18 21 20 18 21 16 13 16 10 8 8 7 7 7 11 9 8 12 15 13 11 7 5 4 5 8 11 13 16 18 19 19 19 18
3 5 9 12 15 17 19 19 21 18 21 21 14 7 3 3 23 7 6 9 9 12 10 12 10 12 13 15 18 18 10 10 5 5 7 9 11 16 18 19 19 18 17
6 8 8 12 13 15 19 21 20 19 18 26 23 8 4 2 5 7 6 11 12 10 13 10 14 13 13 13 14 15 14 11 9 6 6 10 12 15 17 15 14 12 15
5 6 8 11 13 15 17 17 20 19 22 21 25 15 17 14 1 3 5 13 7 10 11 14 16 16 13 12 12 14 14 13 10 6 6 4 10 15 17 19 18 20 15
8 11 13 11 12 12 15 16 17 20 19 17 19 20 17 11 11 3 2 9 11 8 15 19 21 18 15 13 13 14 11 14 16 10 3 5 5 6 8 18 17 18 18
11 15 18 12 12 10 12 13 16 17 18 13 17 13 10 5 4 5 2 3 6 22 22 23 20 17 16 15 11 11 8 9 12 9 6 4 0 2 5 8 7 12 15
9 12 6 10 8 8 9 14 15 16 10 12 9 8 9 9 8 6 3 3 2 7 12 19 18 13 13 14 9 6 7 6 7 5 5 4 4 1 4 7 9 11 10
5 9 3 4 3 9 11 12 14 11 11 8 8 12 13 11 9 8 9 3 3 5 5 7 12 10 11 13 10 5 4 3 5 4 4 5 5 3 2 4 9 12 10
14 8 0 3 6 8 11 12 9 10 8 9 11 11 15 20 20 18 18 17 6 2 2 2 2 7 9 9 9 5 1 3 5 7 6 5 2 2 3 5 6 11 8
5 5 7 10 9 9 10 10 7 6 8 13 12 14 16 17 19 18 19 20 18 11 2 0 7 10 12 9 6 4 4 4 5 8 4 4 2 2 5 6 7 6 10
15 14 12 11 7 7 9 8 2 4 10 12 14 14 14 14 15 18 19 18 17 14 3 9 10 13 14 13 7 5 4 5 7 8 6 6 3 1 4 6 8 8 8
16 15 12 10 7 6 7 3 4 9 12 13 12 10 13 15 18 17 15 15 10 14 13 17 15 14 16 14 10 5 2 5 6 7 8 6 7 3 1 3 5 7 8
16 14 13 12 9 6 4 1 7 13 14 13 11 13 14 16 15 15 15 19 25 23 22 17 12 15 13 15 11 10 3 2 6 8 6 8 10 7 4 2 2 5 6
17 16 14 11 8 7 5 6 14 17 17 14 11 13 12 12 12 12 14 16 17 21 21 20 19 17 12 13 11 14 13 5 3 7 2 6 10 12 7 3 3 4 7
19 18 14 12 10 8 10 13 17 18 18 15 14 15 15 15 14 17 18 21 21 20 20 20 17 18 16 12 15 14 12 10 4 10 10 5 8 11 12 4 4 8 10
19 17 15 13 12 12 12 13 18 19 16 15 19 18 18 19 20 22 23 22 22 21 19 18 16 15 18 15 17 19 16 3 3 12 6 5 5 11 10 6 10 10 10
20 18 14 12 10 13 12 15 20 16 17 17 19 19 19 16 16 19 20 19 16 16 20 21 20 24 19 15 15 20 17 14 11 20 4 8 8 10 17 13 14 15 5
22 19 16 14 13 15 15 21 18 17 18 18 18 15 14 12 11 11 11 11 10 9 14 18 22 28 26 20 15 14 13 12 14 24 18 6 15 9 18 20 18 15 8
23 20 17 16 16 20 22 22 18 19 22 20 14 15 13 13 10 9 7 8 6 4 7 11 12 22 29 33 31 29 27 17 8 10 26 11 12 12 13 26 24 19 16
26 20 19 18 17 22 26 23 18 22 22 21 18 16 12 13 12 9 7 7 6 6 3 5 11 14 21 30 35 30 21 16 10 9 21 13 16 11 6 20 29 21 26
Wind_Direction
83 106 229 302 161 218 275 331 242 234 20 27 17 21 34 22 147 248 233 214 191 236 224 206 218 210 213 218 221 216 213 212 214 214 214 209 208 204 200 199 204 209 211
10 341 338 30 27 219 275 358 10 16 10 12 1 5 10 12 55 13 245 233 216 269 216 229 229 221 232 225 224 225 219 214 211 212 212 215 209 203 199 197 193 200 206
322 360 350 28 31 67 95 12 3 358 8 3 12 10 8 8 32 37 47 196 195 292 268 291 259 242 241 242 237 234 225 214 208 206 204 205 205 202 196 195 195 194 194
355 352 1 338 3 33 48 23 13 8 4 4 6 7 4 6 358 15 12 219 342 7 336 212 250 260 269 269 252 242 257 239 231 213 201 201 204 203 194 190 191 187 189
274 308 331 326 333 75 30 14 5 10 3 5 1 358 354 357 274 295 337 310 319 354 348 276 234 278 275 230 231 222 136 359 194 221 199 198 199 195 195 189 194 183 185
250 303 339 338 324 315 351 6 2 360 4 4 357 355 5 6 63 359 328 357 342 339 33 3 330 350 34 88 100 151 108 122 178 186 176 193 196 197 192 189 188 172 181
68 333 329 354 16 354 355 356 359 352 354 1 356 350 8 57 43 359 46 6 360 36 56 69 42 82 75 68 72 84 95 118 110 153 180 181 190 184 185 183 177 166 170
283 315 339 336 341 346 347 357 1 356 346 353 0 333 334 96 8 113 94 58 57 70 86 93 71 69 70 59 66 74 77 76 131 152 175 181 183 187 183 181 177 175 178
275 281 306 321 329 332 340 352 359 357 342 349 357 15 1 330 359 163 80 50 55 112 116 95 101 86 80 73 63 64 59 62 75 106 165 192 192 190 185 187 178 201 189
284 272 287 302 315 326 333 339 344 351 347 350 347 347 334 313 153 331 3 38 69 104 109 120 110 104 86 65 44 31 22 27 27 40 59 73 198 207 206 208 201 208 203
245 254 271 290 293 310 317 323 336 340 343 344 349 344 347 23 44 76 337 349 62 58 64 96 111 93 72 54 39 28 31 24 20 13 41 66 84 102 208 226 224 225 230
262 272 265 264 283 292 310 327 339 341 347 344 341 356 44 49 33 35 359 328 82 84 92 90 93 83 66 54 39 35 46 43 25 13 40 46 90 169 138 135 165 215 220
316 342 318 246 269 292 321 336 340 347 2 347 356 56 59 61 60 49 54 316 80 112 85 77 78 63 51 42 56 56 86 48 36 52 38 32 19 317 208 208 185 174 170
316 350 334 259 258 316 333 341 345 0 357 8 58 65 61 45 29 16 23 30 20 57 75 111 69 75 53 40 41 50 44 39 44 39 15 350 335 319 209 184 196 201 174
279 300 133 291 335 331 330 338 359 354 351 62 75 69 57 81 67 74 65 61 91 101 19 60 132 100 50 30 36 12 119 53 44 16 354 342 331 114 144 176 187 197 199
271 242 279 296 310 326 333 338 359 4 78 82 74 76 70 73 67 54 57 63 67 81 104 214 87 77 47 45 25 39 93 76 26 21 33 45 78 172 189 202 211 203 213
253 264 277 290 304 322 320 338 18 70 99 92 84 85 77 68 74 66 62 54 47 43 82 71 99 62 51 54 80 76 80 59 46 35 33 32 41 156 178 198 206 207 206
245 260 266 274 282 300 319 306 76 111 120 109 104 83 81 81 78 71 63 43 26 21 86 84 62 55 49 60 81 80 58 50 37 35 29 34 21 37 216 209 215 213 206
236 244 250 259 264 273 298 246 105 123 127 119 104 91 91 85 75 69 63 60 64 72 71 77 45 21 43 40 48 43 99 90 16 24 37 58 47 32 11 293 198 179 194
231 238 241 249 254 269 241 156 134 133 131 125 109 101 95 94 87 81 69 59 71 71 63 54 36 23 26 31 30 17 13 298 253 8 236 38 26 23 360 290 235 233 251
226 237 239 240 243 247 219 164 150 149 142 129 117 110 99 97 93 90 81 71 71 74 71 63 49 32 20 14 3 356 350 350 249 18 350 286 341 356 1 4 336 302 268
225 234 229 230 235 239 207 169 161 159 149 140 127 115 110 103 94 91 85 80 72 77 75 68 54 29 19 16 9 9 355 354 38 350 359 39 9 5 5 3 354 321 286
220 226 222 217 224 182 172 164 167 160 151 145 135 130 122 114 107 99 89 80 81 74 68 68 62 37 39 22 18 21 28 84 62 23 98 30 21 350 11 22 3 342 304
213 215 210 211 195 175 170 166 166 157 151 147 142 138 139 140 130 108 92 97 88 92 72 73 65 53 48 40 43 48 53 101 48 31 28 18 2 355 10 34 25 13 7
205 210 205 202 191 169 169 172 167 154 148 154 165 158 146 136 147 134 112 104 101 107 89 80 74 60 54 53 50 54 50 53 21 16 16 5 353 341 9 22 38 39 55
205 204 200 207 199 175 172 179 177 160 157 157 158 160 167 160 147 148 134 125 120 77 115 111 95 77 60 57 52 54 60 51 33 20 9 9 5 5 353 21 35 64 80